Tabellarische Ansicht des 4.12.2019


Die einzelnen Werte des Tages

Uhrzeit Temperatur Luftdruck Luftfeuchte Wind Hi-Wind Taupunkt THW Index Wind Chill Heat Index Solar- strahlung Regen

00:00

4.2 C

1022.2 hpa

89 %

4.8 km/h aus 117

8.0 km/h aus S

2.5 C

3.2 C

3.2 C

4.1 C

0 W/m

0.00 mm

00:05

4.1 C

1022.2 hpa

89 %

4.8 km/h aus 113

9.7 km/h aus SSW

2.4 C

3.1 C

3.1 C

4.0 C

0 W/m

0.00 mm

00:10

3.9 C

1022.2 hpa

89 %

4.8 km/h aus 115

11.3 km/h aus SSW

2.3 C

2.9 C

2.9 C

3.9 C

0 W/m

0.00 mm

00:15

3.8 C

1022.2 hpa

89 %

3.2 km/h aus 114

4.8 km/h aus S

2.2 C

3.6 C

3.7 C

3.8 C

0 W/m

0.00 mm

00:20

3.8 C

1022.2 hpa

89 %

3.2 km/h aus 116

6.4 km/h aus S

2.1 C

3.5 C

3.6 C

3.7 C

0 W/m

0.00 mm

00:25

3.7 C

1022.2 hpa

89 %

3.2 km/h aus 116

8.0 km/h aus SSW

2.1 C

3.4 C

3.5 C

3.7 C

0 W/m

0.00 mm

00:30

3.6 C

1022.0 hpa

89 %

3.2 km/h aus 116

8.0 km/h aus SW

2.0 C

3.3 C

3.4 C

3.6 C

0 W/m

0.00 mm

00:35

3.6 C

1022.0 hpa

90 %

4.8 km/h aus 117

6.4 km/h aus SW

2.1 C

2.6 C

2.6 C

3.6 C

0 W/m

0.00 mm

00:40

3.6 C

1022.0 hpa

90 %

4.8 km/h aus 116

8.0 km/h aus SW

2.1 C

2.6 C

2.6 C

3.6 C

0 W/m

0.00 mm

00:45

3.6 C

1021.8 hpa

90 %

6.4 km/h aus 113

11.3 km/h aus SSW

2.1 C

1.9 C

2.0 C

3.6 C

0 W/m

0.00 mm

00:50

3.7 C

1021.8 hpa

90 %

6.4 km/h aus 115

11.3 km/h aus SW

2.2 C

2.1 C

2.1 C

3.7 C

0 W/m

0.00 mm

00:55

3.8 C

1021.8 hpa

91 %

9.7 km/h aus 116

17.7 km/h aus SSW

2.5 C

1.3 C

1.3 C

3.8 C

0 W/m

0.00 mm

01:00

3.9 C

1021.6 hpa

91 %

8.0 km/h aus 118

16.1 km/h aus SE

2.6 C

1.8 C

1.9 C

3.9 C

0 W/m

0.00 mm

01:05

4.0 C

1021.6 hpa

91 %

8.0 km/h aus 116

14.5 km/h aus S

2.7 C

1.9 C

1.9 C

3.9 C

0 W/m

0.00 mm

01:10

4.1 C

1021.6 hpa

91 %

6.4 km/h aus 117

19.3 km/h aus SW

2.7 C

2.4 C

2.5 C

4.0 C

0 W/m

0.00 mm

01:15

4.1 C

1021.4 hpa

91 %

4.8 km/h aus 116

14.5 km/h aus SSW

2.7 C

3.1 C

3.1 C

4.0 C

0 W/m

0.00 mm

01:20

4.1 C

1021.4 hpa

91 %

6.4 km/h aus 114

14.5 km/h aus SSW

2.7 C

2.4 C

2.5 C

4.0 C

0 W/m

0.00 mm

01:25

4.1 C

1021.4 hpa

91 %

6.4 km/h aus 116

14.5 km/h aus SSW

2.8 C

2.5 C

2.6 C

4.1 C

0 W/m

0.00 mm

01:30

4.1 C

1021.4 hpa

91 %

6.4 km/h aus 116

14.5 km/h aus SSW

2.8 C

2.5 C

2.6 C

4.1 C

0 W/m

0.00 mm

01:35

4.2 C

1021.4 hpa

91 %

4.8 km/h aus 116

9.7 km/h aus SSW

2.8 C

3.2 C

3.2 C

4.1 C

0 W/m

0.00 mm

01:40

4.1 C

1021.4 hpa

91 %

4.8 km/h aus 117

8.0 km/h aus SSW

2.8 C

3.1 C

3.2 C

4.1 C

0 W/m

0.00 mm

01:45

4.1 C

1021.3 hpa

91 %

4.8 km/h aus 117

11.3 km/h aus SSW

2.7 C

3.1 C

3.1 C

4.0 C

0 W/m

0.00 mm

01:50

4.1 C

1021.3 hpa

91 %

4.8 km/h aus 116

9.7 km/h aus SSW

2.7 C

3.1 C

3.1 C

4.0 C

0 W/m

0.00 mm

01:55

4.1 C

1021.3 hpa

91 %

4.8 km/h aus 114

8.0 km/h aus SSW

2.7 C

3.1 C

3.1 C

4.0 C

0 W/m

0.00 mm

02:00

4.0 C

1021.3 hpa

91 %

3.2 km/h aus 116

8.0 km/h aus SSW

2.7 C

3.8 C

3.8 C

3.9 C

0 W/m

0.00 mm

02:05

4.0 C

1021.3 hpa

91 %

3.2 km/h aus 117

6.4 km/h aus SSW

2.7 C

3.8 C

3.8 C

3.9 C

0 W/m

0.00 mm

02:10

3.9 C

1021.3 hpa

91 %

3.2 km/h aus 117

6.4 km/h aus S

2.6 C

3.7 C

3.7 C

3.8 C

0 W/m

0.00 mm

02:15

3.8 C

1021.3 hpa

91 %

0.0 km/h aus 116

3.2 km/h aus S

2.5 C

3.8 C

3.8 C

3.8 C

0 W/m

0.00 mm

02:20

3.7 C

1021.3 hpa

91 %

0.0 km/h aus 117

0.0 km/h aus ---

2.4 C

3.7 C

3.7 C

3.7 C

0 W/m

0.00 mm

02:25

3.6 C

1021.3 hpa

90 %

0.0 km/h aus 115

0.0 km/h aus ---

2.1 C

3.5 C

3.6 C

3.5 C

0 W/m

0.00 mm

02:30

3.4 C

1021.3 hpa

90 %

0.0 km/h aus 113

0.0 km/h aus ---

1.9 C

3.3 C

3.4 C

3.3 C

0 W/m

0.00 mm

02:35

3.2 C

1021.3 hpa

90 %

0.0 km/h aus 116

0.0 km/h aus ---

1.7 C

3.1 C

3.2 C

3.1 C

0 W/m

0.00 mm

02:40

3.0 C

1021.3 hpa

90 %

0.0 km/h aus 116

0.0 km/h aus ---

1.5 C

2.9 C

3.0 C

2.9 C

0 W/m

0.00 mm

02:45

2.8 C

1021.0 hpa

90 %

0.0 km/h aus 117

0.0 km/h aus ---

1.4 C

2.8 C

2.8 C

2.8 C

0 W/m

0.00 mm

02:50

2.7 C

1021.0 hpa

90 %

1.6 km/h aus 115

6.4 km/h aus SW

1.2 C

2.7 C

2.7 C

2.7 C

0 W/m

0.00 mm

02:55

2.7 C

1021.0 hpa

90 %

1.6 km/h aus 116

6.4 km/h aus SSW

1.2 C

2.6 C

2.7 C

2.6 C

0 W/m

0.00 mm

03:00

2.6 C

1020.9 hpa

90 %

3.2 km/h aus 116

4.8 km/h aus SSW

1.1 C

2.2 C

2.2 C

2.5 C

0 W/m

0.00 mm

03:05

2.5 C

1020.9 hpa

90 %

3.2 km/h aus 114

6.4 km/h aus SW

1.0 C

2.1 C

2.2 C

2.4 C

0 W/m

0.00 mm

03:10

2.4 C

1020.9 hpa

90 %

3.2 km/h aus 115

6.4 km/h aus SSW

1.0 C

2.1 C

2.1 C

2.4 C

0 W/m

0.00 mm

03:15

2.4 C

1020.8 hpa

90 %

3.2 km/h aus 117

8.0 km/h aus SSW

1.0 C

2.1 C

2.1 C

2.4 C

0 W/m

0.00 mm

03:20

2.4 C

1020.8 hpa

90 %

4.8 km/h aus 117

8.0 km/h aus SSW

1.0 C

1.2 C

1.3 C

2.4 C

0 W/m

0.00 mm

03:25

2.4 C

1020.8 hpa

91 %

4.8 km/h aus 116

8.0 km/h aus SW

1.1 C

1.2 C

1.3 C

2.4 C

0 W/m

0.00 mm

03:30

2.4 C

1020.6 hpa

91 %

4.8 km/h aus 117

9.7 km/h aus SSW

1.1 C

1.2 C

1.3 C

2.4 C

0 W/m

0.00 mm

03:35

2.5 C

1020.6 hpa

91 %

6.4 km/h aus 117

9.7 km/h aus SSW

1.2 C

0.7 C

0.7 C

2.4 C

0 W/m

0.00 mm

03:40

2.6 C

1020.6 hpa

91 %

4.8 km/h aus 116

8.0 km/h aus S

1.2 C

1.3 C

1.4 C

2.5 C

0 W/m

0.00 mm

03:45

2.6 C

1020.4 hpa

91 %

4.8 km/h aus 114

8.0 km/h aus SSW

1.3 C

1.4 C

1.4 C

2.6 C

0 W/m

0.00 mm

03:50

2.6 C

1020.4 hpa

91 %

3.2 km/h aus 113

6.4 km/h aus S

1.3 C

2.2 C

2.3 C

2.6 C

0 W/m

0.00 mm

03:55

2.6 C

1020.4 hpa

91 %

4.8 km/h aus 117

8.0 km/h aus S

1.2 C

1.3 C

1.4 C

2.5 C

0 W/m

0.00 mm

04:00

2.6 C

1020.6 hpa

91 %

3.2 km/h aus 117

6.4 km/h aus S

1.2 C

2.2 C

2.2 C

2.5 C

0 W/m

0.00 mm

04:05

2.4 C

1020.6 hpa

91 %

3.2 km/h aus 115

4.8 km/h aus S

1.1 C

2.1 C

2.1 C

2.4 C

0 W/m

0.00 mm

04:10

2.4 C

1020.6 hpa

91 %

3.2 km/h aus 117

4.8 km/h aus S

1.1 C

2.0 C

2.1 C

2.3 C

0 W/m

0.00 mm

04:15

2.3 C

1020.5 hpa

91 %

4.8 km/h aus 118

8.0 km/h aus S

1.0 C

1.1 C

1.1 C

2.2 C

0 W/m

0.00 mm

04:20

2.2 C

1020.5 hpa

91 %

6.4 km/h aus 115

11.3 km/h aus S

0.9 C

0.3 C

0.4 C

2.2 C

0 W/m

0.00 mm

04:25

2.2 C

1020.5 hpa

91 %

8.0 km/h aus 114

11.3 km/h aus S

0.8 C

-0.2 C

-0.2 C

2.1 C

0 W/m

0.00 mm

04:30

2.2 C

1020.6 hpa

92 %

8.0 km/h aus 115

14.5 km/h aus SSW

1.1 C

-0.2 C

-0.1 C

2.2 C

0 W/m

0.00 mm

04:35

2.3 C

1020.6 hpa

92 %

8.0 km/h aus 117

11.3 km/h aus SSW

1.1 C

-0.1 C

-0.1 C

2.2 C

0 W/m

0.00 mm

04:40

2.3 C

1020.6 hpa

92 %

8.0 km/h aus 115

11.3 km/h aus S

1.2 C

-0.1 C

0.0 C

2.3 C

0 W/m

0.00 mm

04:45

2.3 C

1020.6 hpa

92 %

8.0 km/h aus 117

12.9 km/h aus S

1.2 C

-0.1 C

0.0 C

2.3 C

0 W/m

0.00 mm

04:50

2.3 C

1020.6 hpa

92 %

8.0 km/h aus 117

12.9 km/h aus S

1.2 C

-0.1 C

0.0 C

2.3 C

0 W/m

0.00 mm

04:55

2.3 C

1020.6 hpa

92 %

6.4 km/h aus 116

12.9 km/h aus S

1.1 C

0.4 C

0.4 C

2.2 C

0 W/m

0.00 mm

05:00

2.3 C

1020.7 hpa

92 %

6.4 km/h aus 114

9.7 km/h aus S

1.1 C

0.4 C

0.4 C

2.2 C

0 W/m

0.00 mm

05:05

2.2 C

1020.7 hpa

92 %

4.8 km/h aus 114

6.4 km/h aus S

1.1 C

0.9 C

1.0 C

2.2 C

0 W/m

0.00 mm

05:10

2.1 C

1020.7 hpa

92 %

6.4 km/h aus 116

9.7 km/h aus SSE

0.9 C

0.2 C

0.3 C

2.1 C

0 W/m

0.00 mm

05:15

2.1 C

1020.5 hpa

92 %

6.4 km/h aus 117

9.7 km/h aus S

0.9 C

0.2 C

0.2 C

2.0 C

0 W/m

0.00 mm

05:20

2.0 C

1020.5 hpa

92 %

4.8 km/h aus 118

8.0 km/h aus S

0.8 C

0.7 C

0.8 C

1.9 C

0 W/m

0.00 mm

05:25

1.9 C

1020.5 hpa

92 %

4.8 km/h aus 116

6.4 km/h aus S

0.8 C

0.7 C

0.7 C

1.9 C

0 W/m

0.00 mm

05:30

1.8 C

1020.5 hpa

92 %

3.2 km/h aus 117

6.4 km/h aus SW

0.7 C

1.4 C

1.4 C

1.8 C

0 W/m

0.00 mm

05:35

1.8 C

1020.5 hpa

92 %

4.8 km/h aus 116

9.7 km/h aus SW

0.7 C

0.5 C

0.6 C

1.8 C

0 W/m

0.00 mm

05:40

1.9 C

1020.5 hpa

93 %

6.4 km/h aus 114

9.7 km/h aus SSW

0.9 C

0.0 C

0.0 C

1.9 C

0 W/m

0.00 mm

05:45

2.0 C

1020.5 hpa

93 %

4.8 km/h aus 115

9.7 km/h aus SSW

1.0 C

0.8 C

0.8 C

2.0 C

0 W/m

0.00 mm

05:50

2.1 C

1020.5 hpa

93 %

4.8 km/h aus 117

9.7 km/h aus SSW

1.1 C

0.9 C

0.9 C

2.1 C

0 W/m

0.00 mm

05:55

2.2 C

1020.5 hpa

93 %

3.2 km/h aus 117

6.4 km/h aus WSW

1.2 C

1.8 C

1.8 C

2.2 C

0 W/m

0.00 mm

06:00

2.2 C

1020.4 hpa

93 %

3.2 km/h aus 117

6.4 km/h aus WSW

1.2 C

1.8 C

1.8 C

2.2 C

0 W/m

0.00 mm

06:05

2.2 C

1020.4 hpa

93 %

3.2 km/h aus 117

6.4 km/h aus WSW

1.2 C

1.8 C

1.8 C

2.2 C

0 W/m

0.00 mm

06:10

2.2 C

1020.4 hpa

93 %

4.8 km/h aus 116

6.4 km/h aus WSW

1.2 C

0.9 C

0.9 C

2.2 C

0 W/m

0.00 mm

06:15

2.1 C

1020.4 hpa

93 %

6.4 km/h aus 116

6.4 km/h aus SW

1.1 C

0.3 C

0.3 C

2.1 C

0 W/m

0.00 mm

06:20

1.9 C

1020.4 hpa

93 %

4.8 km/h aus 112

6.4 km/h aus SSW

0.9 C

0.7 C

0.7 C

1.9 C

0 W/m

0.00 mm

06:25

1.8 C

1020.4 hpa

92 %

4.8 km/h aus 115

6.4 km/h aus SSW

0.7 C

0.5 C

0.6 C

1.8 C

0 W/m

0.00 mm

06:30

1.7 C

1020.4 hpa

92 %

6.4 km/h aus 117

8.0 km/h aus S

0.5 C

-0.3 C

-0.3 C

1.6 C

0 W/m

0.00 mm

06:35

1.6 C

1020.4 hpa

93 %

6.4 km/h aus 117

9.7 km/h aus SSE

0.5 C

-0.4 C

-0.4 C

1.5 C

0 W/m

0.00 mm

06:40

1.4 C

1020.4 hpa

92 %

8.0 km/h aus 117

11.3 km/h aus SSE

0.3 C

-1.1 C

-1.1 C

1.4 C

0 W/m

0.00 mm

06:45

1.4 C

1020.3 hpa

93 %

9.7 km/h aus 116

12.9 km/h aus S

0.4 C

-1.6 C

-1.6 C

1.3 C

0 W/m

0.00 mm

06:50

1.4 C

1020.3 hpa

93 %

9.7 km/h aus 117

14.5 km/h aus S

0.4 C

-1.6 C

-1.5 C

1.4 C

0 W/m

0.00 mm

06:55

1.5 C

1020.3 hpa

93 %

9.7 km/h aus 115

12.9 km/h aus S

0.5 C

-1.5 C

-1.4 C

1.4 C

0 W/m

0.00 mm

07:00

1.5 C

1020.4 hpa

93 %

8.0 km/h aus 115

9.7 km/h aus S

0.5 C

-1.1 C

-1.0 C

1.4 C

0 W/m

0.00 mm

07:05

1.5 C

1020.4 hpa

93 %

6.4 km/h aus 115

8.0 km/h aus SSE

0.5 C

-0.5 C

-0.4 C

1.4 C

0 W/m

0.00 mm

07:10

1.5 C

1020.4 hpa

93 %

6.4 km/h aus 117

9.7 km/h aus S

0.5 C

-0.5 C

-0.4 C

1.4 C

0 W/m

0.00 mm

07:15

1.4 C

1020.4 hpa

93 %

4.8 km/h aus 116

8.0 km/h aus S

0.4 C

0.1 C

0.2 C

1.4 C

0 W/m

0.00 mm

07:20

1.4 C

1020.4 hpa

93 %

4.8 km/h aus 117

6.4 km/h aus S

0.4 C

0.1 C

0.2 C

1.4 C

0 W/m

0.00 mm

07:25

1.4 C

1020.4 hpa

93 %

4.8 km/h aus 117

6.4 km/h aus S

0.4 C

0.0 C

0.1 C

1.3 C

0 W/m

0.00 mm

07:30

1.3 C

1020.3 hpa

93 %

4.8 km/h aus 117

8.0 km/h aus S

0.3 C

-0.1 C

0.0 C

1.3 C

0 W/m

0.00 mm

07:35

1.3 C

1020.3 hpa

93 %

6.4 km/h aus 115

11.3 km/h aus S

0.3 C

-0.8 C

-0.7 C

1.2 C

0 W/m

0.00 mm

07:40

1.2 C

1020.3 hpa

93 %

6.4 km/h aus 114

11.3 km/h aus S

0.2 C

-0.8 C

-0.8 C

1.2 C

0 W/m

0.00 mm

07:45

1.2 C

1020.3 hpa

93 %

4.8 km/h aus 114

8.0 km/h aus S

0.2 C

-0.2 C

-0.1 C

1.2 C

0 W/m

0.00 mm

07:50

1.2 C

1020.3 hpa

93 %

6.4 km/h aus 117

8.0 km/h aus S

0.2 C

-0.8 C

-0.8 C

1.2 C

0 W/m

0.00 mm

07:55

1.2 C

1020.3 hpa

93 %

6.4 km/h aus 116

9.7 km/h aus S

0.2 C

-0.8 C

-0.8 C

1.2 C

0 W/m

0.00 mm

08:00

1.2 C

1020.4 hpa

93 %

6.4 km/h aus 116

8.0 km/h aus S

0.2 C

-0.9 C

-0.8 C

1.1 C

3 W/m

0.00 mm

08:05

1.2 C

1020.4 hpa

93 %

6.4 km/h aus 117

9.7 km/h aus S

0.2 C

-0.9 C

-0.8 C

1.1 C

6 W/m

0.00 mm

08:10

1.2 C

1020.4 hpa

94 %

8.0 km/h aus 116

11.3 km/h aus S

0.4 C

-1.3 C

-1.3 C

1.2 C

8 W/m

0.00 mm

08:15

1.4 C

1020.5 hpa

94 %

8.0 km/h aus 116

11.3 km/h aus S

0.5 C

-1.2 C

-1.1 C

1.3 C

10 W/m

0.00 mm

08:20

1.6 C

1020.5 hpa

94 %

8.0 km/h aus 114

11.3 km/h aus S

0.7 C

-0.9 C

-0.9 C

1.6 C

12 W/m

0.00 mm

08:25

1.6 C

1020.5 hpa

94 %

8.0 km/h aus 115

11.3 km/h aus S

0.7 C

-0.8 C

-0.8 C

1.6 C

15 W/m

0.00 mm

08:30

1.7 C

1020.5 hpa

94 %

6.4 km/h aus 116

11.3 km/h aus S

0.9 C

-0.2 C

-0.2 C

1.7 C

17 W/m

0.00 mm

08:35

1.7 C

1020.5 hpa

94 %

6.4 km/h aus 115

9.7 km/h aus S

0.9 C

-0.2 C

-0.2 C

1.7 C

19 W/m

0.00 mm

08:40

1.8 C

1020.5 hpa

94 %

6.4 km/h aus 118

9.7 km/h aus S

0.9 C

-0.1 C

-0.1 C

1.8 C

22 W/m

0.00 mm

08:45

1.8 C

1020.5 hpa

94 %

8.0 km/h aus 116

11.3 km/h aus S

0.9 C

-0.7 C

-0.7 C

1.8 C

24 W/m

0.00 mm

08:50

1.8 C

1020.5 hpa

94 %

6.4 km/h aus 116

9.7 km/h aus S

1.0 C

-0.1 C

-0.1 C

1.8 C

26 W/m

0.00 mm

08:55

1.9 C

1020.5 hpa

94 %

6.4 km/h aus 115

8.0 km/h aus S

1.0 C

0.0 C

0.0 C

1.9 C

29 W/m

0.00 mm

09:00

1.9 C

1020.4 hpa

94 %

4.8 km/h aus 113

8.0 km/h aus S

1.0 C

0.7 C

0.7 C

1.9 C

31 W/m

0.00 mm

09:05

1.9 C

1020.4 hpa

94 %

4.8 km/h aus 116

8.0 km/h aus S

1.1 C

0.7 C

0.7 C

1.9 C

34 W/m

0.00 mm

09:10

2.1 C

1020.4 hpa

94 %

4.8 km/h aus 116

8.0 km/h aus S

1.2 C

0.9 C

0.9 C

2.1 C

44 W/m

0.00 mm

09:15

2.6 C

1020.5 hpa

95 %

6.4 km/h aus 117

9.7 km/h aus S

1.9 C

0.8 C

0.8 C

2.6 C

62 W/m

0.00 mm

09:20

2.7 C

1020.5 hpa

94 %

4.8 km/h aus 116

9.7 km/h aus S

1.9 C

1.6 C

1.6 C

2.7 C

66 W/m

0.00 mm

09:25

2.8 C

1020.5 hpa

94 %

4.8 km/h aus 117

8.0 km/h aus SSE

2.0 C

1.7 C

1.7 C

2.8 C

78 W/m

0.00 mm

09:30

2.9 C

1020.5 hpa

94 %

4.8 km/h aus 116

8.0 km/h aus S

2.0 C

1.8 C

1.8 C

2.9 C

79 W/m

0.00 mm

09:35

3.1 C

1020.5 hpa

93 %

6.4 km/h aus 114

9.7 km/h aus S

2.1 C

1.4 C

1.4 C

3.1 C

77 W/m

0.00 mm

09:40

3.3 C

1020.5 hpa

93 %

6.4 km/h aus 116

9.7 km/h aus S

2.3 C

1.7 C

1.7 C

3.3 C

89 W/m

0.00 mm

09:45

3.4 C

1020.5 hpa

92 %

6.4 km/h aus 118

9.7 km/h aus S

2.3 C

1.7 C

1.8 C

3.4 C

110 W/m

0.00 mm

09:50

3.4 C

1020.5 hpa

92 %

8.0 km/h aus 116

11.3 km/h aus S

2.3 C

1.3 C

1.3 C

3.4 C

122 W/m

0.00 mm

09:55

3.7 C

1020.5 hpa

92 %

6.4 km/h aus 116

9.7 km/h aus S

2.5 C

2.0 C

2.1 C

3.6 C

130 W/m

0.00 mm

10:00

3.8 C

1020.6 hpa

91 %

6.4 km/h aus 117

9.7 km/h aus S

2.4 C

2.1 C

2.2 C

3.7 C

137 W/m

0.00 mm

10:05

4.1 C

1020.6 hpa

91 %

8.0 km/h aus 114

14.5 km/h aus S

2.7 C

2.0 C

2.1 C

4.0 C

143 W/m

0.00 mm

10:10

4.1 C

1020.6 hpa

90 %

6.4 km/h aus 115

9.7 km/h aus S

2.6 C

2.5 C

2.6 C

4.1 C

149 W/m

0.00 mm

10:15

4.3 C

1020.8 hpa

90 %

6.4 km/h aus 116

9.7 km/h aus S

2.8 C

2.7 C

2.8 C

4.2 C

154 W/m

0.00 mm

10:20

4.3 C

1020.8 hpa

89 %

6.4 km/h aus 117

11.3 km/h aus SSW

2.7 C

2.8 C

2.8 C

4.3 C

160 W/m

0.00 mm

10:25

4.4 C

1020.8 hpa

89 %

8.0 km/h aus 116

11.3 km/h aus S

2.7 C

2.4 C

2.4 C

4.3 C

168 W/m

0.00 mm

10:30

4.5 C

1020.7 hpa

88 %

6.4 km/h aus 117

11.3 km/h aus S

2.7 C

2.9 C

3.0 C

4.4 C

174 W/m

0.00 mm

10:35

4.7 C

1020.7 hpa

89 %

6.4 km/h aus 115

9.7 km/h aus S

3.0 C

3.2 C

3.2 C

4.6 C

179 W/m

0.00 mm

10:40

4.8 C

1020.7 hpa

88 %

6.4 km/h aus 114

11.3 km/h aus S

3.0 C

3.3 C

3.3 C

4.7 C

182 W/m

0.00 mm

10:45

4.9 C

1020.6 hpa

87 %

9.7 km/h aus 117

16.1 km/h aus S

3.0 C

2.6 C

2.7 C

4.8 C

189 W/m

0.00 mm

10:50

5.1 C

1020.6 hpa

87 %

8.0 km/h aus 115

14.5 km/h aus S

3.1 C

3.1 C

3.2 C

4.9 C

193 W/m

0.00 mm

10:55

5.2 C

1020.6 hpa

87 %

8.0 km/h aus 116

11.3 km/h aus SSE

3.2 C

3.3 C

3.4 C

5.2 C

194 W/m

0.00 mm

11:00

5.3 C

1020.4 hpa

86 %

9.7 km/h aus 117

12.9 km/h aus SSE

3.1 C

2.9 C

3.1 C

5.2 C

196 W/m

0.00 mm

11:05

5.3 C

1020.4 hpa

86 %

11.3 km/h aus 114

16.1 km/h aus SSE

3.1 C

2.6 C

2.7 C

5.2 C

198 W/m

0.00 mm

11:10

5.3 C

1020.4 hpa

86 %

9.7 km/h aus 116

14.5 km/h aus SSE

3.1 C

2.9 C

3.1 C

5.2 C

201 W/m

0.00 mm

11:15

5.3 C

1020.3 hpa

85 %

9.7 km/h aus 117

14.5 km/h aus SSE

3.0 C

2.9 C

3.1 C

5.2 C

204 W/m

0.00 mm

11:20

5.3 C

1020.3 hpa

85 %

9.7 km/h aus 117

11.3 km/h aus SE

3.0 C

3.0 C

3.1 C

5.2 C

209 W/m

0.00 mm

11:25

5.3 C

1020.3 hpa

85 %

8.0 km/h aus 117

11.3 km/h aus SSE

3.0 C

3.4 C

3.5 C

5.2 C

210 W/m

0.00 mm

11:30

5.4 C

1020.1 hpa

85 %

9.7 km/h aus 114

11.3 km/h aus SSE

3.1 C

3.1 C

3.2 C

5.3 C

213 W/m

0.00 mm

11:35

5.5 C

1020.1 hpa

85 %

8.0 km/h aus 115

11.3 km/h aus SE

3.2 C

3.6 C

3.7 C

5.4 C

214 W/m

0.00 mm

11:40

5.6 C

1020.1 hpa

85 %

8.0 km/h aus 117

9.7 km/h aus SE

3.2 C

3.7 C

3.8 C

5.4 C

215 W/m

0.00 mm

11:45

5.7 C

1019.8 hpa

85 %

8.0 km/h aus 117

9.7 km/h aus SE

3.3 C

3.8 C

3.9 C

5.6 C

216 W/m

0.00 mm

11:50

5.7 C

1019.8 hpa

84 %

6.4 km/h aus 115

9.7 km/h aus SE

3.2 C

4.3 C

4.4 C

5.6 C

213 W/m

0.00 mm

11:55

5.8 C

1019.8 hpa

84 %

9.7 km/h aus 117

11.3 km/h aus SE

3.3 C

3.6 C

3.7 C

5.7 C

213 W/m

0.00 mm

12:00

5.8 C

1019.7 hpa

84 %

8.0 km/h aus 114

11.3 km/h aus SE

3.3 C

4.0 C

4.1 C

5.7 C

214 W/m

0.00 mm

12:05

5.8 C

1019.7 hpa

84 %

11.3 km/h aus 115

16.1 km/h aus SE

3.3 C

3.2 C

3.3 C

5.7 C

214 W/m

0.00 mm

12:10

5.8 C

1019.7 hpa

84 %

9.7 km/h aus 117

14.5 km/h aus SE

3.3 C

3.6 C

3.7 C

5.7 C

210 W/m

0.00 mm

12:15

5.8 C

1019.4 hpa

84 %

9.7 km/h aus 117

14.5 km/h aus SSE

3.3 C

3.6 C

3.7 C

5.7 C

203 W/m

0.00 mm

12:20

5.9 C

1019.4 hpa

83 %

8.0 km/h aus 117

11.3 km/h aus SSE

3.2 C

4.1 C

4.2 C

5.8 C

198 W/m

0.00 mm

12:25

6.0 C

1019.4 hpa

84 %

8.0 km/h aus 115

9.7 km/h aus SE

3.5 C

4.2 C

4.3 C

5.9 C

201 W/m

0.00 mm

12:30

6.1 C

1019.3 hpa

84 %

9.7 km/h aus 115

14.5 km/h aus SSE

3.6 C

3.9 C

4.0 C

6.0 C

202 W/m

0.00 mm

12:35

6.0 C

1019.3 hpa

84 %

11.3 km/h aus 117

16.1 km/h aus SE

3.5 C

3.5 C

3.6 C

5.9 C

196 W/m

0.00 mm

12:40

5.9 C

1019.3 hpa

84 %

11.3 km/h aus 117

16.1 km/h aus SE

3.4 C

3.4 C

3.6 C

5.8 C

191 W/m

0.00 mm

12:45

5.8 C

1019.3 hpa

83 %

12.9 km/h aus 117

16.1 km/h aus SE

3.2 C

3.0 C

3.1 C

5.7 C

199 W/m

0.00 mm

12:50

5.9 C

1019.3 hpa

84 %

9.7 km/h aus 116

16.1 km/h aus SE

3.4 C

3.7 C

3.8 C

5.8 C

201 W/m

0.00 mm

12:55

5.9 C

1019.3 hpa

84 %

12.9 km/h aus 115

16.1 km/h aus SE

3.4 C

3.1 C

3.2 C

5.8 C

195 W/m

0.00 mm

13:00

5.9 C

1019.3 hpa

84 %

11.3 km/h aus 117

16.1 km/h aus SE

3.4 C

3.4 C

3.5 C

5.8 C

191 W/m

0.00 mm

13:05

5.8 C

1019.3 hpa

84 %

11.3 km/h aus 116

17.7 km/h aus SE

3.3 C

3.3 C

3.4 C

5.7 C

185 W/m

0.00 mm

13:10

5.9 C

1019.3 hpa

83 %

9.7 km/h aus 117

16.1 km/h aus SE

3.3 C

3.7 C

3.8 C

5.8 C

132 W/m

0.00 mm

13:15

5.9 C

1019.1 hpa

83 %

9.7 km/h aus 117

14.5 km/h aus SE

3.3 C

3.7 C

3.8 C

5.8 C

150 W/m

0.00 mm

13:20

6.0 C

1019.1 hpa

84 %

11.3 km/h aus 116

16.1 km/h aus SE

3.5 C

3.5 C

3.6 C

5.9 C

114 W/m

0.00 mm

13:25

5.9 C

1019.1 hpa

83 %

11.3 km/h aus 113

14.5 km/h aus SE

3.3 C

3.4 C

3.6 C

5.8 C

109 W/m

0.00 mm

13:30

5.9 C

1019.1 hpa

83 %

9.7 km/h aus 117

12.9 km/h aus SE

3.3 C

3.7 C

3.8 C

5.8 C

109 W/m

0.00 mm

13:35

6.1 C

1019.1 hpa

84 %

9.7 km/h aus 117

16.1 km/h aus SE

3.6 C

3.9 C

4.0 C

6.0 C

88 W/m

0.00 mm

13:40

5.9 C

1019.1 hpa

84 %

8.0 km/h aus 117

12.9 km/h aus SE

3.4 C

4.1 C

4.2 C

5.8 C

66 W/m

0.00 mm

13:45

6.0 C

1018.9 hpa

84 %

8.0 km/h aus 117

9.7 km/h aus SE

3.5 C

4.2 C

4.3 C

5.9 C

54 W/m

0.00 mm

13:50

5.9 C

1018.9 hpa

84 %

9.7 km/h aus 114

16.1 km/h aus SE

3.4 C

3.7 C

3.8 C

5.8 C

51 W/m

0.00 mm

13:55

5.7 C

1018.9 hpa

84 %

11.3 km/h aus 114

16.1 km/h aus SE

3.2 C

3.2 C

3.3 C

5.6 C

61 W/m

0.00 mm

14:00

5.6 C

1019.0 hpa

85 %

9.7 km/h aus 118

16.1 km/h aus SE

3.3 C

3.3 C

3.4 C

5.5 C

52 W/m

0.00 mm

14:05

5.5 C

1019.0 hpa

85 %

11.3 km/h aus 117

16.1 km/h aus SE

3.2 C

2.9 C

3.0 C

5.4 C

52 W/m

0.00 mm

14:10

5.4 C

1019.0 hpa

86 %

9.7 km/h aus 117

16.1 km/h aus SE

3.2 C

3.1 C

3.2 C

5.3 C

47 W/m

0.00 mm

14:15

5.3 C

1018.9 hpa

85 %

8.0 km/h aus 117

12.9 km/h aus ESE

3.0 C

3.3 C

3.4 C

5.2 C

47 W/m

0.00 mm

14:20

5.2 C

1018.9 hpa

86 %

8.0 km/h aus 114

14.5 km/h aus ESE

3.0 C

3.2 C

3.3 C

5.1 C

46 W/m

0.00 mm

14:25

5.0 C

1018.9 hpa

86 %

9.7 km/h aus 113

16.1 km/h aus ESE

2.9 C

2.6 C

2.7 C

4.9 C

43 W/m

0.00 mm

14:30

4.9 C

1018.8 hpa

86 %

8.0 km/h aus 116

11.3 km/h aus ESE

2.7 C

2.9 C

3.0 C

4.8 C

41 W/m

0.00 mm

14:35

4.8 C

1018.8 hpa

86 %

8.0 km/h aus 117

12.9 km/h aus ESE

2.6 C

2.8 C

2.9 C

4.7 C

38 W/m

0.00 mm

14:40

4.7 C

1018.8 hpa

86 %

9.7 km/h aus 117

16.1 km/h aus SE

2.5 C

2.2 C

2.3 C

4.6 C

36 W/m

0.00 mm

14:45

4.6 C

1018.8 hpa

87 %

11.3 km/h aus 117

16.1 km/h aus SE

2.6 C

1.8 C

1.9 C

4.5 C

34 W/m

0.00 mm

14:50

4.6 C

1018.8 hpa

87 %

8.0 km/h aus 115

14.5 km/h aus SE

2.6 C

2.5 C

2.6 C

4.4 C

33 W/m

0.00 mm

14:55

4.5 C

1018.8 hpa

87 %

8.0 km/h aus 115

11.3 km/h aus SE

2.5 C

2.4 C

2.6 C

4.4 C

32 W/m

0.00 mm

15:00

4.4 C

1018.8 hpa

87 %

8.0 km/h aus 114

11.3 km/h aus SE

2.5 C

2.4 C

2.5 C

4.3 C

30 W/m

0.00 mm

15:05

4.4 C

1018.8 hpa

87 %

8.0 km/h aus 116

14.5 km/h aus ESE

2.5 C

2.4 C

2.5 C

4.3 C

29 W/m

0.00 mm

15:10

4.4 C

1018.8 hpa

88 %

8.0 km/h aus 117

14.5 km/h aus SE

2.6 C

2.4 C

2.4 C

4.3 C

26 W/m

0.00 mm

15:15

4.3 C

1018.8 hpa

88 %

9.7 km/h aus 116

16.1 km/h aus ESE

2.5 C

1.8 C

1.9 C

4.2 C

24 W/m

0.00 mm

15:20

4.2 C

1018.8 hpa

88 %

9.7 km/h aus 117

14.5 km/h aus SE

2.4 C

1.7 C

1.8 C

4.1 C

21 W/m

0.00 mm

15:25

4.1 C

1018.8 hpa

88 %

8.0 km/h aus 116

12.9 km/h aus ESE

2.2 C

2.0 C

2.1 C

4.0 C

19 W/m

0.00 mm

15:30

3.9 C

1018.8 hpa

88 %

9.7 km/h aus 114

14.5 km/h aus ESE

2.1 C

1.4 C

1.5 C

3.9 C

19 W/m

0.00 mm

15:35

3.8 C

1018.8 hpa

88 %

9.7 km/h aus 115

14.5 km/h aus SE

2.0 C

1.3 C

1.3 C

3.8 C

18 W/m

0.00 mm

15:40

3.7 C

1018.8 hpa

88 %

9.7 km/h aus 117

16.1 km/h aus SE

1.9 C

1.2 C

1.2 C

3.7 C

15 W/m

0.00 mm

15:45

3.6 C

1019.0 hpa

88 %

11.3 km/h aus 117

16.1 km/h aus ESE

1.8 C

0.6 C

0.7 C

3.5 C

13 W/m

0.00 mm

15:50

3.4 C

1019.0 hpa

89 %

11.3 km/h aus 117

16.1 km/h aus SE

1.8 C

0.5 C

0.6 C

3.4 C

11 W/m

0.00 mm

15:55

3.3 C

1019.0 hpa

89 %

11.3 km/h aus 117

17.7 km/h aus SE

1.7 C

0.3 C

0.4 C

3.3 C

9 W/m

0.00 mm

16:00

3.2 C

1018.9 hpa

89 %

8.0 km/h aus 116

14.5 km/h aus ESE

1.5 C

0.9 C

1.0 C

3.1 C

6 W/m

0.00 mm

16:05

3.1 C

1018.9 hpa

89 %

6.4 km/h aus 113

11.3 km/h aus ESE

1.4 C

1.3 C

1.3 C

3.0 C

5 W/m

0.00 mm

16:10

3.0 C

1018.9 hpa

89 %

6.4 km/h aus 115

14.5 km/h aus ESE

1.4 C

1.2 C

1.3 C

2.9 C

3 W/m

0.00 mm

16:15

2.9 C

1018.7 hpa

89 %

8.0 km/h aus 118

14.5 km/h aus SE

1.3 C

0.6 C

0.7 C

2.8 C

0 W/m

0.00 mm

16:20

2.8 C

1018.7 hpa

90 %

6.4 km/h aus 117

12.9 km/h aus ESE

1.3 C

1.0 C

1.1 C

2.7 C

0 W/m

0.00 mm

16:25

2.7 C

1018.7 hpa

90 %

9.7 km/h aus 117

14.5 km/h aus ESE

1.2 C

-0.1 C

-0.1 C

2.6 C

0 W/m

0.00 mm

16:30

2.6 C

1018.7 hpa

90 %

11.3 km/h aus 116

19.3 km/h aus SE

1.1 C

-0.5 C

-0.4 C

2.6 C

0 W/m

0.00 mm

16:35

2.6 C

1018.7 hpa

90 %

9.7 km/h aus 117

17.7 km/h aus SE

1.1 C

-0.2 C

-0.2 C

2.5 C

0 W/m

0.00 mm

16:40

2.4 C

1018.7 hpa

90 %

8.0 km/h aus 115

16.1 km/h aus SE

1.0 C

0.1 C

0.1 C

2.4 C

0 W/m

0.00 mm

16:45

2.4 C

1018.6 hpa

90 %

6.4 km/h aus 113

11.3 km/h aus ESE

0.9 C

0.5 C

0.6 C

2.3 C

0 W/m

0.00 mm

16:50

2.3 C

1018.6 hpa

90 %

8.0 km/h aus 116

14.5 km/h aus ESE

0.9 C

-0.1 C

0.0 C

2.3 C

0 W/m

0.00 mm

16:55

2.3 C

1018.6 hpa

91 %

8.0 km/h aus 117

14.5 km/h aus SE

1.0 C

-0.1 C

-0.1 C

2.2 C

0 W/m

0.00 mm

17:00

2.2 C

1018.5 hpa

91 %

8.0 km/h aus 117

11.3 km/h aus SE

0.9 C

-0.2 C

-0.1 C

2.2 C

0 W/m

0.00 mm

17:05

2.2 C

1018.5 hpa

91 %

9.7 km/h aus 117

17.7 km/h aus SE

0.8 C

-0.7 C

-0.6 C

2.1 C

0 W/m

0.00 mm

17:10

2.1 C

1018.5 hpa

91 %

9.7 km/h aus 116

16.1 km/h aus ESE

0.8 C

-0.7 C

-0.7 C

2.1 C

0 W/m

0.00 mm

17:15

2.1 C

1018.7 hpa

91 %

12.9 km/h aus 116

19.3 km/h aus SE

0.7 C

-1.5 C

-1.4 C

2.0 C

0 W/m

0.00 mm

17:20

2.0 C

1018.7 hpa

91 %

12.9 km/h aus 116

17.7 km/h aus SE

0.7 C

-1.6 C

-1.6 C

1.9 C

0 W/m

0.00 mm

17:25

1.9 C

1018.7 hpa

92 %

11.3 km/h aus 114

16.1 km/h aus SE

0.8 C

-1.3 C

-1.3 C

1.9 C

0 W/m

0.00 mm

17:30

1.9 C

1018.7 hpa

91 %

9.7 km/h aus 117

14.5 km/h aus SE

0.6 C

-0.9 C

-0.9 C

1.9 C

0 W/m

0.00 mm

17:35

1.8 C

1018.7 hpa

92 %

11.3 km/h aus 117

17.7 km/h aus ESE

0.7 C

-1.4 C

-1.4 C

1.8 C

0 W/m

0.00 mm

17:40

1.8 C

1018.7 hpa

92 %

11.3 km/h aus 117

14.5 km/h aus SE

0.7 C

-1.4 C

-1.4 C

1.8 C

0 W/m

0.00 mm

17:45

1.8 C

1018.7 hpa

92 %

11.3 km/h aus 117

17.7 km/h aus SE

0.6 C

-1.5 C

-1.4 C

1.7 C

0 W/m

0.00 mm

17:50

1.7 C

1018.7 hpa

92 %

9.7 km/h aus 116

16.1 km/h aus ESE

0.6 C

-1.2 C

-1.2 C

1.7 C

0 W/m

0.00 mm

17:55

1.7 C

1018.7 hpa

92 %

9.7 km/h aus 116

16.1 km/h aus SE

0.5 C

-1.3 C

-1.2 C

1.6 C

0 W/m

0.00 mm

18:00

1.6 C

1018.5 hpa

92 %

12.9 km/h aus 114

17.7 km/h aus SE

0.5 C

-2.1 C

-2.0 C

1.6 C

0 W/m

0.00 mm

18:05

1.6 C

1018.5 hpa

92 %

11.3 km/h aus 115

16.1 km/h aus SE

0.4 C

-1.8 C

-1.7 C

1.5 C

0 W/m

0.00 mm

18:10

1.6 C

1018.5 hpa

92 %

11.3 km/h aus 117

14.5 km/h aus SE

0.4 C

-1.8 C

-1.7 C

1.5 C

0 W/m

0.00 mm

18:15

1.5 C

1018.6 hpa

92 %

8.0 km/h aus 117

12.9 km/h aus SE

0.3 C

-1.1 C

-1.0 C

1.4 C

0 W/m

0.00 mm

18:20

1.4 C

1018.6 hpa

92 %

8.0 km/h aus 117

11.3 km/h aus ESE

0.3 C

-1.1 C

-1.1 C

1.4 C

0 W/m

0.00 mm

18:25

1.4 C

1018.6 hpa

92 %

8.0 km/h aus 117

11.3 km/h aus SE

0.3 C

-1.1 C

-1.1 C

1.4 C

0 W/m

0.00 mm

18:30

1.3 C

1018.5 hpa

92 %

9.7 km/h aus 117

11.3 km/h aus SE

0.2 C

-1.7 C

-1.6 C

1.3 C

0 W/m

0.00 mm

18:35

1.3 C

1018.5 hpa

93 %

9.7 km/h aus 115

14.5 km/h aus SE

0.3 C

-1.7 C

-1.7 C

1.2 C

0 W/m

0.00 mm

18:40

1.2 C

1018.5 hpa

92 %

8.0 km/h aus 112

14.5 km/h aus SE

0.1 C

-1.3 C

-1.3 C

1.2 C

0 W/m

0.00 mm

18:45

1.2 C

1018.6 hpa

93 %

8.0 km/h aus 115

9.7 km/h aus SE

0.2 C

-1.4 C

-1.4 C

1.1 C

0 W/m

0.00 mm

18:50

1.1 C

1018.6 hpa

93 %

8.0 km/h aus 116

9.7 km/h aus ESE

0.1 C

-1.5 C

-1.4 C

1.1 C

0 W/m

0.00 mm

18:55

1.0 C

1018.6 hpa

93 %

8.0 km/h aus 115

9.7 km/h aus SE

0.0 C

-1.6 C

-1.6 C

0.9 C

0 W/m

0.00 mm

19:00

0.9 C

1018.7 hpa

93 %

8.0 km/h aus 115

11.3 km/h aus SE

-0.1 C

-1.7 C

-1.6 C

0.9 C

0 W/m

0.00 mm

19:05

0.9 C

1018.7 hpa

93 %

8.0 km/h aus 117

11.3 km/h aus SE

-0.1 C

-1.7 C

-1.6 C

0.9 C

0 W/m

0.00 mm

19:10

0.9 C

1018.7 hpa

93 %

6.4 km/h aus 117

9.7 km/h aus SE

-0.1 C

-1.2 C

-1.2 C

0.8 C

0 W/m

0.00 mm

19:15

0.8 C

1018.4 hpa

93 %

6.4 km/h aus 115

8.0 km/h aus ESE

-0.2 C

-1.3 C

-1.2 C

0.8 C

0 W/m

0.00 mm

19:20

0.8 C

1018.4 hpa

93 %

4.8 km/h aus 115

6.4 km/h aus ESE

-0.2 C

-0.7 C

-0.6 C

0.7 C

0 W/m

0.00 mm

19:25

0.7 C

1018.4 hpa

93 %

6.4 km/h aus 114

8.0 km/h aus SE

-0.3 C

-1.4 C

-1.3 C

0.7 C

0 W/m

0.00 mm

19:30

0.6 C

1018.7 hpa

93 %

6.4 km/h aus 118

9.7 km/h aus SE

-0.4 C

-1.6 C

-1.5 C

0.6 C

0 W/m

0.00 mm

19:35

0.6 C

1018.7 hpa

93 %

6.4 km/h aus 117

9.7 km/h aus SE

-0.4 C

-1.6 C

-1.6 C

0.5 C

0 W/m

0.00 mm

19:40

0.5 C

1018.7 hpa

93 %

6.4 km/h aus 117

9.7 km/h aus SE

-0.5 C

-1.7 C

-1.6 C

0.4 C

0 W/m

0.00 mm

19:45

0.4 C

1018.7 hpa

93 %

6.4 km/h aus 117

9.7 km/h aus SE

-0.6 C

-1.7 C

-1.7 C

0.4 C

0 W/m

0.00 mm

19:50

0.4 C

1018.7 hpa

93 %

4.8 km/h aus 117

8.0 km/h aus SE

-0.6 C

-1.1 C

-1.1 C

0.3 C

0 W/m

0.00 mm

19:55

0.3 C

1018.7 hpa

93 %

3.2 km/h aus 115

6.4 km/h aus ESE

-0.7 C

-0.3 C

-0.2 C

0.3 C

0 W/m

0.00 mm

20:00

0.3 C

1018.7 hpa

93 %

6.4 km/h aus 114

9.7 km/h aus SE

-0.7 C

-1.9 C

-1.8 C

0.2 C

0 W/m

0.00 mm

20:05

0.3 C

1018.7 hpa

93 %

6.4 km/h aus 115

8.0 km/h aus ESE

-0.7 C

-1.9 C

-1.8 C

0.2 C

0 W/m

0.00 mm

20:10

0.3 C

1018.7 hpa

93 %

4.8 km/h aus 117

6.4 km/h aus SE

-0.7 C

-1.2 C

-1.2 C

0.2 C

0 W/m

0.00 mm

20:15

0.2 C

1018.4 hpa

93 %

4.8 km/h aus 117

6.4 km/h aus ESE

-0.8 C

-1.3 C

-1.2 C

0.2 C

0 W/m

0.00 mm

20:20

0.2 C

1018.4 hpa

93 %

4.8 km/h aus 117

8.0 km/h aus ESE

-0.8 C

-1.3 C

-1.3 C

0.1 C

0 W/m

0.00 mm

20:25

0.1 C

1018.4 hpa

93 %

6.4 km/h aus 117

8.0 km/h aus ESE

-0.9 C

-2.1 C

-2.1 C

0.1 C

0 W/m

0.00 mm

20:30

0.1 C

1018.3 hpa

93 %

6.4 km/h aus 116

8.0 km/h aus ESE

-0.9 C

-2.2 C

-2.1 C

0.0 C

0 W/m

0.00 mm

20:35

0.0 C

1018.3 hpa

93 %

6.4 km/h aus 118

9.7 km/h aus ESE

-1.0 C

-2.2 C

-2.2 C

-0.1 C

0 W/m

0.00 mm

20:40

0.0 C

1018.3 hpa

93 %

4.8 km/h aus 114

8.0 km/h aus SE

-1.0 C

-1.6 C

-1.5 C

-0.1 C

0 W/m

0.00 mm

20:45

-0.1 C

1018.3 hpa

93 %

4.8 km/h aus 114

8.0 km/h aus SE

-1.1 C

-1.6 C

-1.6 C

-0.1 C

0 W/m

0.00 mm

20:50

-0.1 C

1018.3 hpa

93 %

3.2 km/h aus 115

6.4 km/h aus ESE

-1.1 C

-0.7 C

-0.6 C

-0.1 C

0 W/m

0.00 mm

20:55

-0.1 C

1018.3 hpa

93 %

3.2 km/h aus 117

4.8 km/h aus ESE

-1.1 C

-0.8 C

-0.7 C

-0.2 C

0 W/m

0.00 mm

21:00

-0.1 C

1018.3 hpa

93 %

3.2 km/h aus 117

4.8 km/h aus ESE

-1.1 C

-0.8 C

-0.7 C

-0.2 C

0 W/m

0.00 mm

21:05

-0.2 C

1018.3 hpa

93 %

3.2 km/h aus 116

4.8 km/h aus ESE

-1.2 C

-0.8 C

-0.8 C

-0.2 C

0 W/m

0.00 mm

21:10

-0.2 C

1018.3 hpa

93 %

3.2 km/h aus 117

3.2 km/h aus ESE

-1.2 C

-0.9 C

-0.8 C

-0.3 C

0 W/m

0.00 mm

21:15

-0.3 C

1018.2 hpa

93 %

3.2 km/h aus 117

4.8 km/h aus ESE

-1.3 C

-0.9 C

-0.9 C

-0.3 C

0 W/m

0.00 mm

21:20

-0.3 C

1018.2 hpa

93 %

4.8 km/h aus 115

4.8 km/h aus ESE

-1.3 C

-1.9 C

-1.9 C

-0.4 C

0 W/m

0.00 mm

21:25

-0.4 C

1018.2 hpa

93 %

4.8 km/h aus 113

6.4 km/h aus ESE

-1.4 C

-2.0 C

-1.9 C

-0.4 C

0 W/m

0.00 mm

21:30

-0.4 C

1018.1 hpa

93 %

3.2 km/h aus 113

4.8 km/h aus ESE

-1.4 C

-1.1 C

-1.1 C

-0.5 C

0 W/m

0.00 mm

21:35

-0.5 C

1018.1 hpa

93 %

3.2 km/h aus 117

4.8 km/h aus ESE

-1.5 C

-1.2 C

-1.1 C

-0.6 C

0 W/m

0.00 mm

21:40

-0.6 C

1018.1 hpa

93 %

3.2 km/h aus 118

6.4 km/h aus ESE

-1.5 C

-1.2 C

-1.2 C

-0.6 C

0 W/m

0.00 mm

21:45

-0.6 C

1018.0 hpa

93 %

4.8 km/h aus 115

6.4 km/h aus ESE

-1.6 C

-2.2 C

-2.2 C

-0.7 C

0 W/m

0.00 mm

21:50

-0.6 C

1018.0 hpa

93 %

4.8 km/h aus 116

6.4 km/h aus SE

-1.6 C

-2.2 C

-2.2 C

-0.7 C

0 W/m

0.00 mm

21:55

-0.7 C

1018.0 hpa

93 %

4.8 km/h aus 115

6.4 km/h aus SE

-1.7 C

-2.3 C

-2.2 C

-0.7 C

0 W/m

0.00 mm

22:00

-0.7 C

1018.2 hpa

93 %

4.8 km/h aus 115

6.4 km/h aus SSE

-1.7 C

-2.3 C

-2.2 C

-0.7 C

0 W/m

0.00 mm

22:05

-0.7 C

1018.2 hpa

93 %

4.8 km/h aus 115

6.4 km/h aus SSE

-1.7 C

-2.3 C

-2.2 C

-0.7 C

0 W/m

0.00 mm

22:10

-0.7 C

1018.2 hpa

93 %

4.8 km/h aus 113

6.4 km/h aus SSE

-1.7 C

-2.3 C

-2.2 C

-0.7 C

0 W/m

0.00 mm

22:15

-0.7 C

1018.1 hpa

93 %

3.2 km/h aus 114

6.4 km/h aus S

-1.7 C

-1.3 C

-1.3 C

-0.7 C

0 W/m

0.00 mm

22:20

-0.7 C

1018.1 hpa

93 %

3.2 km/h aus 116

4.8 km/h aus S

-1.7 C

-1.3 C

-1.3 C

-0.7 C

0 W/m

0.00 mm

22:25

-0.7 C

1018.1 hpa

93 %

3.2 km/h aus 116

4.8 km/h aus S

-1.7 C

-1.4 C

-1.4 C

-0.8 C

0 W/m

0.00 mm

22:30

-0.7 C

1017.8 hpa

93 %

4.8 km/h aus 117

6.4 km/h aus S

-1.7 C

-2.4 C

-2.3 C

-0.8 C

0 W/m

0.00 mm

22:35

-0.8 C

1017.8 hpa

93 %

0.0 km/h aus 117

3.2 km/h aus SE

-1.8 C

-0.8 C

-0.8 C

-0.8 C

0 W/m

0.00 mm

22:40

-0.8 C

1017.8 hpa

93 %

0.0 km/h aus 117

1.6 km/h aus SE

-1.8 C

-0.8 C

-0.8 C

-0.8 C

0 W/m

0.00 mm

22:45

-0.8 C

1017.8 hpa

93 %

0.0 km/h aus 118

0.0 km/h aus ---

-1.8 C

-0.9 C

-0.8 C

-0.9 C

0 W/m

0.00 mm

22:50

-0.9 C

1017.8 hpa

93 %

0.0 km/h aus 113

0.0 km/h aus ---

-1.9 C

-0.9 C

-0.9 C

-0.9 C

0 W/m

0.00 mm

22:55

-0.9 C

1017.8 hpa

93 %

0.0 km/h aus 114

0.0 km/h aus ---

-1.9 C

-1.0 C

-0.9 C

-1.0 C

0 W/m

0.00 mm

23:00

-1.0 C

1017.8 hpa

93 %

0.0 km/h aus 115

0.0 km/h aus ---

-2.0 C

-1.1 C

-1.0 C

-1.1 C

0 W/m

0.00 mm

23:05

-1.1 C

1017.8 hpa

93 %

1.6 km/h aus 117

3.2 km/h aus SE

-2.0 C

-1.1 C

-1.1 C

-1.1 C

0 W/m

0.00 mm

23:10

-1.2 C

1017.8 hpa

93 %

1.6 km/h aus 117

3.2 km/h aus SE

-2.2 C

-1.2 C

-1.2 C

-1.2 C

0 W/m

0.00 mm

23:15

-1.2 C

1017.8 hpa

93 %

0.0 km/h aus 117

0.0 km/h aus ---

-2.2 C

-1.2 C

-1.2 C

-1.2 C

0 W/m

0.00 mm

23:20

-1.3 C

1017.8 hpa

93 %

0.0 km/h aus 117

0.0 km/h aus ---

-2.3 C

-1.3 C

-1.3 C

-1.3 C

0 W/m

0.00 mm

23:25

-1.3 C

1017.8 hpa

93 %

0.0 km/h aus 117

0.0 km/h aus ---

-2.3 C

-1.4 C

-1.3 C

-1.4 C

0 W/m

0.00 mm

23:30

-1.4 C

1017.9 hpa

93 %

0.0 km/h aus 117

0.0 km/h aus ---

-2.4 C

-1.4 C

-1.4 C

-1.4 C

0 W/m

0.00 mm

23:35

-1.4 C

1017.9 hpa

93 %

0.0 km/h aus 114

0.0 km/h aus ---

-2.4 C

-1.4 C

-1.4 C

-1.4 C

0 W/m

0.00 mm

23:40

-1.4 C

1017.9 hpa

93 %

0.0 km/h aus 115

0.0 km/h aus ---

-2.4 C

-1.5 C

-1.4 C

-1.5 C

0 W/m

0.00 mm

23:45

-1.5 C

1017.7 hpa

93 %

0.0 km/h aus 115

0.0 km/h aus ---

-2.5 C

-1.6 C

-1.5 C

-1.6 C

0 W/m

0.00 mm

23:50

-1.6 C

1017.7 hpa

93 %

0.0 km/h aus 118

0.0 km/h aus ---

-2.5 C

-1.6 C

-1.6 C

-1.6 C

0 W/m

0.00 mm

23:55

-1.6 C

1017.7 hpa

93 %

0.0 km/h aus 117

0.0 km/h aus ---

-2.5 C

-1.6 C

-1.6 C

-1.6 C

0 W/m

0.00 mm